Find Starlink 3339

NORAD ID: 50820 Int'l Des: 2022-001 Owner: SPXS Country: US Constellation: starlink operational
LEOCIRCULAR

Live Position

Loading 3D Globe...

About Starlink 3339

Description loading...

Upcoming Passes

Passes for default location (London). Set your location on the main map for personalized predictions.

Altitude History

Loading altitude history...

Two-Line Element Set

1 50820U 22001T 26120.68278120 .00000270 00000-0 35044-4 0 9994
2 50820 53.2172 295.7139 0001353 90.5749 269.5398 15.08841866238258
Epoch: Apr 30, 2026 • Age: 26 hours

Current Status

Altitude 541.0 km
Velocity 7.60 km/s
Sub-Earth Point 30.85°N, 172.36°W
Launch Date Jan 6, 2022
Age 4.3 years
Type internet

Technical Details

Classification Payload
Mass 297.00 kg
Dry Mass 275.00 kg
Total Mass 297.00 kg
Length 0.20 m
Diameter 2.80 m
Span 9.00 m
Shape Box + pan
Manufacturer SPXS
Bus Type Starlink
Phase Status In Orbit
Owner/State SPXS/US

Most Searched